Regional Weather Roundup
Issued by NWS Wilmington, NC

Home | Current Version | Previous Version | Text Only | Print | Product List | Glossary On
Versions: 1 2 3 4 5 6 7 8 9 10 11 12 13 14 15 16 17 18 19 20 21 22 23 24 25 26 27 28
000
ASUS42 KILM 242113
RWRILM
RWRILM
REGIONAL HOURLY WEATHER ROUNDUP
NATIONAL WEATHER SERVICE WILMINGTON NC
500 PM EDT SAT JUN 24 2017

NOTE: "FAIR" INDICATES FEW OR NO CLOUDS BELOW 12,000 FEET WITH NO
SIGNIFICANT WEATHER AND/OR OBSTRUCTIONS TO VISIBILITY.

...............WFO WILMINGTON COUNTY WARNING AREA...............

......COASTAL NC AND SC COUNTIES......

CITY           SKY/WX    TMP DP  RH WIND       PRES   REMARKS
WILMINGTON     SUNNY     89  73  59 SW21G28   29.92F HX  97
N MYRTLE BEACH SUNNY     85  78  80 S21G29    29.94F HX  96
MYRTLE BEACH   MOSUNNY   86  79  79 S25       29.95F HX  99

......INLAND NC AND SC COUNTIES.......

CITY           SKY/WX    TMP DP  RH WIND       PRES   REMARKS
LUMBERTON      MOSUNNY   91  75  59 SW12G22   29.88F HX 101
ELIZABETHTOWN  NOT AVBL
WHITEVILLE     MOSUNNY   91  73  55 SW15      29.91F HX  99
FLORENCE       MOSUNNY   90  74  59 SW17      29.93R HX  99
DARLINGTON     RAIN      82  75  78 NW10      29.93R
KINGSTREE      FAIR      86  72  62 SW6       29.95R HX  92
HARTSVILLE     TSTM      73  72  94 W8G24     29.97  VSB 1
BENNETTSVILLE  PTSUNNY   86  77  74 SW6       29.91R HX  97
CONWAY         FAIR      90  72  55 SW9G22    29.94S HX  96
GEORGETOWN     FAIR      88  77  70 SW15G23   29.98R HX 100
MARION         FAIR      90  73  58 S15G21    29.92S HX  98

....................REST OF NORTH CAROLINA......................

.........EASTERN NC.........

CITY           SKY/WX    TMP DP  RH WIND       PRES   REMARKS
CAPE HATTERAS  SUNNY     82  75  79 SW15G22   29.95R
JACKSONVILLE   MOSUNNY   92  74  55 SW13G21   29.90F HX 101
MOREHEAD CITY  SUNNY     84  79  85 SW22G28   29.93S HX  96
KENANSVILLE    LGT RAIN  84  77  79 W9        29.91S HX  94
NEW BERN       MOSUNNY   83  78  85 E7        29.93R HX  93
ELIZABETH CITY SUNNY     90  73  57 SW9       29.89F HX  98

.........CENTRAL NC.........

CITY           SKY/WX    TMP DP  RH WIND       PRES   REMARKS
RALEIGH DURHAM CLOUDY    88  71  57 SW6       29.90F HX  94
ROCKY MOUNT    CLOUDY    88  72  58 W5        29.90F HX  94
ROANOKE RAPIDS NOT AVBL
FAYETTEVILLE   TSTM      83  79  88 W13       29.91F FOG     HX  94
HOFFMAN        HVY RAIN  78  75  92 W7        29.91S

.........WESTERN NC.........

CITY           SKY/WX    TMP DP  RH WIND       PRES   REMARKS
CHARLOTTE      CLOUDY    79  67  66 N9        29.97R
GREENSBORO     TSTM      72  72 100 S9        29.96R
HICKORY        NOT AVBL
BOONE          NOT AVBL
ASHEVILLE      NOT AVBL

.....................REST OF SOUTH CAROLINA.....................

.........EASTERN SC.........

CITY           SKY/WX    TMP DP  RH WIND       PRES   REMARKS
CHARLESTON     MOSUNNY   90  74  59 S17G24    29.98S HX  99
BEAUFORT MCAS  MOSUNNY   92  79  65 S7        29.98F HX 108
HILTON HEAD    SUNNY     88  77  70 S13       30.00F HX 100

.........CENTRAL SC.........

CITY           SKY/WX    TMP DP  RH WIND       PRES   REMARKS
COLUMBIA       RAIN      77  74  90 SW6       29.97F FOG
ORANGEBURG     LGT RAIN  79  75  87 NW12      29.99R
SUMTER SHAW    DRIZZLE   81  76  84 W10       29.93F

.........WESTERN SC.........

CITY           SKY/WX    TMP DP  RH WIND       PRES   REMARKS
GREENVILLE     NOT AVBL
ROCK HILL      CLOUDY    81  74  79 SW9       29.98R
ANDERSON       CLOUDY    83  73  72 W3        29.98S
CLEMSON        NOT AVBL
GREENWOOD      CLOUDY    77  73  87 W6        30.00R


...................COASTAL AND OFFSHORE REPORTS..................

................LOCAL PIERS AND NC RESERVE................


STATION/POSITION TIME  SKY/WX   TEMP    WIND        PRES    VSBY
                                AIR SEA DIR/SP/G
                 (UTC)          (F)     (DEG/KT/KT) (MB)    (MI)
JOHNY MRCER PIER 2036            83 81  190/ 22/ 25 1012.6F
NC RESRV MASNBRO 1945            89     240/ 10     1015.0
OCEAN CREST PIER NOT AVBL
SPRINGMAID  PIER 2036                               1013.3F


................COASTAL AND OFFSHORE BUOYS................


STATION/POSITION TIME  SKY/WX   TEMP    WIND        PRES    VSBY
                                AIR SEA DIR/SP/G
                 (UTC)          (F)     (DEG/KT/KT) (MB)    (MI)
DIMNDSHOAL 41025 2050            81 80  230/ 19/ 23 1013.8F
WVE H/P(F/S)=  7/ 7

CAPE LOOKOUT     2100            82     210/ 16/ 20 1013.5S
ONSLOW BAY 41036 NOT AVBL
ONSLOW BAY 41064 2008            80 80  220/ 17/ 25 1014.6F
ONSLOW BAY 41159 2043               80                N/A
WVE H/P(F/S)=  6/ 7

MASNBO INL 41110 2059               79                N/A
WVE H/P(F/S)=  4/ 6

WILM HARBR 41108 NOT AVBL
27SE WRITB 41037 2008            79 80  210/ 17/ 23 1014.8F
FRYING PAN 41013 2100            81 81  200/ 19/ 23 1014.9
SUNST NRSH 41024 2008            80 79  210/ 16/ 19 1014.1F
CAPRS NRSH 41029 2008            86 83  210/ 16/ 23 1015.4F
EDISTO     41004 2050            81 81  200/ 14/ 17 1016.0F
WVE H/P(F/S)=  4/ 6 SWL H/P/D(F/S/D)=  2/150/ 8



..........OFFSHORE BUOYS BEYOND 100 NM OFFSHORE...........
.....IN A TRIANGLE---HAT TO BERMUDA TO BAHAMAS TO HAT.....


STATION/POSITION TIME  SKY/WX   TEMP    WIND        PRES    VSBY
                                AIR SEA DIR/SP/G
                 (UTC)          (F)     (DEG/KT/KT) (MB)    (MI)
150E HAT   41001 2100            80 79  210/ 19/ 25 1016.4
W BERMUDA  41048 2100            81 81  220/ 12/ 14 1021.1
ATLANTIC S 41049 2050            81 82   70/  8/ 10 1022.5F
WVE H/P(F/S)=  4/ 8 SWL H/P/D(F/S/D)=  3/ 90/ 8

E BAHAMAS  41046 2100            82 83  100/ 10/ 14 1019.4
NE BAHAMAS 41047 2100            83 83  140/  6/  8 1021.0
120E CANVRL41010 2100            82 84  170/  8/ 10 1018.6

END




USA.gov is the U.S. government's official web portal to all federal, state and local government web resources and services.